[Date Prev][Date Next][Thread Prev][Thread Next] - [Date Index][Thread Index][Author Index]

2 Line ISS Keps 8-24



ISS
1 25544U 98067A   05236.32258020  .00014120  00000-0  11030-3 0  2087
2 25544 051.6434 272.0884 0001256 334.3467 087.5771 15.71955706386402
----
Via the sarex mailing list at AMSAT.ORG courtesy of AMSAT-NA.
To unsubscribe, send "unsubscribe sarex" to Majordomo@amsat.org



AMSAT Top AMSAT Home